Location: Devore Heights
(34.2372°N, 117.4156°W)
Time: 04:13:01
(UTC+00:00)

Vanguard 2 Rocket - Pass Details

Date: 16 September 2024
Orbit: 553 x 3298 km, 32.9° (Epoch: 14 October)

Event Time Altitude Azimuth Distance (km) Brightness Sun altitude
Exits shadow 10:10:57 81° 213° (SSW) 2,256 8.5 -39.8°
Maximum altitude 10:11:38 83° 172° (S) 2,290 8.6 -39.7°
Drops below altitude 10° 10:29:41 10° 87° (E) 6,037 11.6 -36.7°
Sets 10:34:50 0° 87° (E) 7,215 12.2 -35.8°
